Content
SEND FEEDBACK

Daily
Averages
Monthly
Summary
Belgium

GENT, BELGIUM


Home > Europe > Belgium
Elevation: 43 feet     Latitude: 51 11N     Longitude: 003 49E

WEATHER
 
SELECT A DAY
Number of Records: 305,664;   Date Range: 7/1/96 - 7/20/14
 
SHARE

PRINT THIS DATA

[ ← Previous Day ]
WEATHER ALMANAC - FEBRUARY 16, 2013
[ Next Day → ]
[ °C ]   °F
Weather ElementAverageHighLow
Temperature41.5 °F44.6 °F (1:20 pm)37.4 °F (10:20 pm)
Dewpoint38.3 °F41 °F (1:20 pm)35.6 °F (10:20 pm)
Humidity87.9 %100 % (10:50 pm)80 % (4:00 pm)
Barometer30.23 in30.27 in (11:20 am)30.21 in (12:50 am)
Wind Speed2.7 mph5.8 mph (7:50 am)
Weather ElementAverage
Visibility3.1 mi
Wind DirectionSSE (146 °)

Weather ElementTotal
Precipitation---
Heating Degree Days24 (Base 65)
Averaged from 55 records on February 16, 2013
WEATHER CONDITIONS BREAKOUT
WIND DIRECTION BREAKOUT
WEATHER BY HOUR - FEBRUARY 16, 2013
[ °C ]   °F
Local TimeTemperatureDewpointHumidityBarometerVisibilityWind DirectionWind SpeedGust SpeedPrecipitationEventsConditions
12:50 AM42.8 °F39.2 °F87 %30.21 in4.3 miWSW (240°)3.5 mphMostly Cloudy
1:00 AM42.0 °F39.0 °F83 %30.21 inWSW (240°)4.5 mphOvercast
1:20 AM41.0 °F39.2 °F93 %30.21 in4.3 miWSW (240°)3.5 mph
1:50 AM41.0 °F37.4 °F87 %30.21 in4.3 miVariable2.3 mph
2:20 AM41.0 °F37.4 °F87 %30.21 in3.7 miWSW (240°)3.5 mph
2:50 AM41.0 °F37.4 °F87 %30.21 in3.7 miWSW (250°)3.5 mph
3:20 AM41.0 °F37.4 °F87 %30.21 in3.7 miVariable1.2 mphScattered Clouds
3:50 AM41.0 °F37.4 °F87 %30.21 in3.7 miVariable1.2 mph
4:00 AM40.0 °F38.0 °F88 %30.21 in3.0 miCalmMist
4:20 AM39.2 °F37.4 °F93 %30.21 in2.5 miEast (80°)1.2 mphMist
4:50 AM41.0 °F37.4 °F87 %30.21 in3.1 miSSW (200°)3.5 mphOvercast
5:20 AM41.0 °F37.4 °F87 %30.21 in3.7 miSW (220°)4.6 mph
5:50 AM41.0 °F37.4 °F87 %30.21 in4.3 miSW (230°)4.6 mph
6:20 AM41.0 °F37.4 °F87 %30.21 in3.7 miSW (230°)4.6 mph
6:50 AM41.0 °F37.4 °F87 %30.21 in4.3 miWSW (240°)4.6 mph
7:00 AM41.0 °F38.0 °F83 %30.23 in4.0 miWSW (240°)4.5 mphMostly Cloudy
7:20 AM41.0 °F37.4 °F87 %30.21 in4.3 miSW (220°)4.6 mph
7:50 AM41.0 °F37.4 °F87 %30.21 in3.7 miSW (220°)5.8 mph
8:20 AM41.0 °F37.4 °F87 %30.21 in3.7 miSW (220°)5.8 mph
8:50 AM41.0 °F37.4 °F87 %30.21 in3.7 miSW (220°)4.6 mph
9:20 AM41.0 °F37.4 °F87 %30.24 in3.7 miNW (310°)3.5 mphPartly Cloudy
9:50 AM41.0 °F37.4 °F87 %30.24 in3.7 miVariable2.3 mphPartly Cloudy
10:00 AM41.0 °F38.0 °F85 %30.25 in4.0 miWest (270°)2.2 mphMostly Cloudy
10:20 AM41.0 °F39.2 °F93 %30.24 in3.7 miVariable1.2 mphMostly Cloudy
10:50 AM42.8 °F39.2 °F87 %30.24 inSSW (200°)3.5 mphPartly Cloudy
11:20 AM42.8 °F39.2 °F87 %30.27 inSSE (150°)3.5 mphScattered Clouds
11:50 AM42.8 °F39.2 °F87 %30.27 inSSE (160°)2.3 mphScattered Clouds
12:20 PM42.8 °F39.2 °F87 %30.27 inSE (140°)3.5 mphScattered Clouds
12:50 PM42.8 °F39.2 °F87 %30.24 inVariable2.3 mphPartly Cloudy
1:00 PM43.0 °F40.0 °F84 %30.27 in3.0 miSSE (150°)2.2 mphMist
1:20 PM44.6 °F41.0 °F87 %30.24 inVariable1.2 mphPartly Cloudy
1:50 PM44.6 °F41.0 °F87 %30.24 in3.7 miVariable2.3 mph
2:20 PM44.6 °F41.0 °F87 %30.24 in3.7 miSW (230°)4.6 mph
2:50 PM44.6 °F39.2 °F81 %30.24 in3.7 miSW (220°)4.6 mph
3:20 PM44.6 °F39.2 °F81 %30.24 in3.7 miWSW (250°)4.6 mph
3:50 PM44.6 °F39.2 °F81 %30.24 in3.7 miWest (260°)3.5 mph
4:00 PM44.0 °F40.0 °F80 %30.25 in4.0 miWest (260°)4.5 mphMostly Cloudy
4:20 PM44.6 °F39.2 °F81 %30.24 in3.7 miVariable2.3 mph
4:50 PM44.6 °F39.2 °F81 %30.24 in3.7 miVariable2.3 mph
5:20 PM42.8 °F39.2 °F87 %30.24 in3.7 miWSW (250°)3.5 mph
5:50 PM42.8 °F39.2 °F87 %30.24 in3.7 miVariable1.2 mph
6:20 PM42.8 °F39.2 °F87 %30.24 in3.7 miWest (270°)1.2 mph
6:50 PM42.8 °F39.2 °F87 %30.24 in3.1 miCalmMist
7:00 PM43.0 °F40.0 °F83 %30.26 in3.0 miCalmMist
7:20 PM41.0 °F39.2 °F93 %30.24 inSE (130°)2.3 mphMist
7:50 PM39.2 °F37.4 °F93 %30.24 in2.5 miSouth (180°)1.2 mphMist
8:20 PM39.2 °F37.4 °F93 %30.24 in1.6 miENE (60°)2.3 mphMist
8:50 PM39.2 °F37.4 °F93 %30.24 in1.1 miCalmMist
9:20 PM39.2 °F37.4 °F93 %30.24 in0.6 miESE (110°)1.2 mphFogFog
9:50 PM39.2 °F37.4 °F93 %30.24 in0.4 miSE (130°)2.3 mphFogFog
10:00 PM38.0 °F37.0 °F95 %30.27 in0.0 miSE (130°)2.2 mphFogPartial Fog
10:20 PM37.4 °F35.6 °F93 %30.24 in0.2 miSE (130°)1.2 mphFogFog
10:50 PM37.4 °F37.4 °F100 %30.24 in0.1 miCalmFogFog
11:20 PM37.4 °F37.4 °F100 %30.24 in0.1 miEast (80°)2.3 mphFogPatches of Fog
11:50 PM39.2 °F37.4 °F93 %30.24 in0.2 miSE (140°)1.2 mphFogFog
Hourly data recorded from EBAW, located miles away from Gent, Belgium







STORIES FROM OUR PARTNERS